Date,TemperatureHighF,TemperatureAvgF,TemperatureLowF,DewpointHighF,DewpointAvgF,DewpointLowF,HumidityHigh,HumidityAvg,HumidityLow,PressureMaxIn,PressureMinIn,WindSpeedMaxMPH,WindSpeedAvgMPH,GustSpeedMaxMPH,PrecipitationSumIn
2013-10-1,68.5,68.5,68.5,62.1,62.1,62.1,80,80,80,30.04,30.04,4,4,5,0.00
2013-10-2,83.0,68.2,47.1,62.1,51.3,40.8,92,59,28,30.04,29.90,18,4,18,0.00
2013-10-3,74.9,63.0,44.6,42.0,33.9,26.3,79,40,17,30.08,29.96,29,11,29,0.00
2013-10-4,81.3,72.3,63.6,29.7,27.3,23.7,26,19,12,30.11,30.02,31,12,31,0.00
2013-10-5,89.2,72.3,51.7,40.1,27.8,22.0,53,21,10,30.19,30.09,15,4,15,0.00
2013-10-6,89.3,65.0,44.6,41.5,36.0,27.8,67,40,12,30.13,29.99,12,2,12,0.00
2013-10-7,88.7,64.8,44.8,46.6,37.2,25.0,70,42,11,30.00,29.84,12,2,12,0.00
2013-10-8,79.0,57.8,39.5,50.3,44.4,34.6,86,64,34,29.92,29.70,13,2,13,0.00
2013-10-9,75.3,56.1,38.2,47.3,41.7,35.9,94,64,25,29.76,29.63,22,3,22,0.00
2013-10-10,72.8,58.9,46.1,52.5,45.9,36.8,91,64,39,30.01,29.75,14,3,14,0.00
2013-10-11,74.8,54.2,40.4,51.8,45.4,38.4,94,75,36,30.10,29.96,9,2,9,0.00
2013-10-12,72.4,53.1,38.2,54.1,45.3,36.1,94,77,50,30.02,29.87,15,2,15,0.00
2013-10-13,77.7,58.1,39.6,45.9,40.2,31.6,93,59,19,30.07,29.92,16,4,16,0.00
2013-10-14,83.0,58.5,37.1,45.2,38.7,32.1,90,55,17,30.13,29.99,12,2,12,0.00
2013-10-15,82.3,59.3,36.2,40.5,32.1,23.1,85,45,12,30.06,29.94,20,4,20,0.00
2013-10-16,84.9,59.8,37.6,40.7,34.2,28.6,76,44,16,30.10,30.01,9,2,9,0.00
2013-10-17,87.0,61.0,40.8,41.2,37.1,32.6,77,47,17,30.11,29.94,12,2,12,0.00
2013-10-18,83.3,59.0,38.4,45.6,39.8,32.8,83,54,23,30.08,29.97,12,2,12,0.00
2013-10-19,87.6,60.8,39.5,47.5,41.2,34.0,88,56,19,30.09,29.97,8,2,8,0.00
2013-10-20,81.7,58.0,37.5,53.3,44.9,33.8,89,66,33,30.03,29.88,12,2,12,0.00
2013-10-21,76.1,54.8,41.1,53.7,47.6,39.1,95,79,44,30.02,29.90,10,2,10,0.00
2013-10-22,80.0,56.4,41.2,54.5,48.2,39.6,95,78,40,30.06,29.90,10,2,10,0.00
2013-10-23,76.2,54.2,42.1,54.9,48.0,40.1,95,82,46,30.00,29.88,12,2,9,0.00
2013-10-24,70.3,52.2,43.9,51.5,47.1,41.6,95,84,51,30.10,29.98,10,2,10,0.00
2013-10-25,75.3,53.6,38.8,53.2,45.8,37.5,95,78,45,30.18,30.07,10,2,10,0.01
2013-10-26,85.0,58.0,38.7,50.3,44.8,36.5,95,68,27,30.16,29.99,8,2,8,0.00
2013-10-27,62.0,47.1,38.0,48.0,42.6,35.1,94,85,60,30.02,29.62,16,1,16,0.00
2013-10-28,66.6,49.4,33.9,47.6,41.9,32.1,95,78,42,29.84,29.66,14,3,14,0.00
2013-10-29,67.5,53.5,43.7,48.2,45.2,40.9,92,75,47,30.06,29.84,9,2,9,0.00
2013-10-30,72.3,51.7,35.6,49.4,42.7,33.6,95,74,42,30.17,30.06,10,2,10,0.00
2013-10-31,74.8,54.4,35.8,49.3,42.9,33.4,94,69,39,30.19,30.05,10,2,10,0.00